www.pogodaiklimat.ru

Погода и климат >> Архив погоды >> Россия >> Московская область >> Мелихово


ПОГОДА в Мелихово

  • Прогноз погоды в Мелихово
  • Монитор погоды в Мелихово

АРХИВ ПОГОДЫ в Мелихово

Время (UTC), дата Ветер
(напр.,м/с)
 
Видим.   Явления Облачность Т
(С)
Тd
(С)
f
(%)
Тe
(С)
Тes
(С)
Комфортность P
(гПа)
Po
(гПа)
Тmin
(С)
Tmax
(С)
R
(мм)
R24
(мм)
S
(см)
18 18.06 З 1 н/о н/о +21.4 +13.5 61 +24 +24 комфорт 1013.0 991.8 +26.1 0.9
21 18.06 З 1 н/о н/о +16.7 +13.5 81 +18 +18 тепло 1014.2 992.7
00 19.06 СЗ 1 н/о н/о +16.2 +12.2 77 +17 +17 тепло 1015.1 993.5
03 19.06 СЗ 1 н/о н/о +15.9 +11.0 73 +17 +17 тепло 1015.8 994.2 +14.7
06 19.06 СЗ 1 н/о н/о +21.6 +12.2 55 +24 +24 комфорт 1016.1 994.8 +14.7
09 19.06 С 1 н/о н/о +24.8 +10.2 40 +26 +26 жарко 1016.1 995.0
12 19.06 СЗ 2 н/о н/о +25.9 +10.5 38 +27 +27 жарко 1015.6 994.7
15 19.06 СЗ 1 н/о н/о +26.4 +9.7 35 +27 +27 жарко 1015.1 994.2
18 19.06 штиль 0 н/о н/о +18.5 +14.7 79 +19 +19 тепло 1015.7 994.3 +26.7
21 19.06 штиль 0 н/о н/о +13.2 +12.5 96 +13 +13 по сезону 1016.9 995.0
00 20.06 штиль 0 н/о н/о +11.2 +10.7 97 +10 +10 по сезону 1017.8 995.8
03 20.06 штиль 0 н/о н/о +12.8 +12.4 97 +12 +12 прохладно 1018.3 996.4 +10.6
06 20.06 штиль 0 н/о н/о +24.6 +14.4 53 +27 +27 жарко 1017.5 996.5 +10.6
09 20.06 ЮЗ 1 н/о н/о +26.6 +11.5 39 +28 +28 жарко 1017.0 996.0
12 20.06 штиль 0 н/о н/о +27.2 +11.7 38 +28 +28 жарко 1016.4 995.6
15 20.06 З 1 н/о н/о +27.0 +10.5 36 +28 +28 жарко 1015.7 994.8
18 20.06 штиль 0 н/о н/о +19.8 +17.0 84 +22 +22 комфорт 1016.2 994.8 +28.6
21 20.06 штиль 0 н/о н/о +14.8 +14.0 95 +14 +14 по сезону 1017.4 995.7
00 21.06 штиль 0 н/о н/о +12.2 +11.7 97 +12 +12 по сезону 1018.2 996.2
03 21.06 штиль 0 н/о н/о +14.8 +14.2 96 +14 +14 по сезону 1018.5 996.7 +11.7
06 21.06 штиль 0 н/о н/о +25.0 +15.5 56 +28 +28 жарко 1017.7 996.7 +11.7
09 21.06 ЮЗ 1 н/о н/о +26.8 +13.0 42 +28 +28 жарко 1017.4 996.5
12 21.06 Ю 1 н/о н/о +29.0 +11.5 34 +30 +30 жарко 1016.7 996.0
15 21.06 штиль 0 н/о н/о +29.3 +12.2 35 +30 +30 жарко 1015.4 994.7
18 21.06 штиль 0 н/о н/о +20.1 +16.0 77 +22 +22 комфорт 1016.0 994.7 +29.4
21 21.06 штиль 0 н/о н/о +15.3 +14.2 93 +15 +15 по сезону 1016.6 994.9
00 22.06 штиль 0 н/о н/о +14.6 +13.8 95 +14 +14 по сезону 1016.2 994.5
03 22.06 штиль 0 н/о н/о +20.5 +15.2 72 +23 +23 комфорт 1015.8 994.5 +14.6
06 22.06 ЮЗ 1 н/о н/о +24.6 +16.5 61 +28 +28 душно 1015.7 994.7 +14.6
09 22.06 ЮЗ 1 н/о н/о +29.1 +17.0 48 +33 +33 очень
душно
1015.5 994.9
12 22.06 З 2 н/о н/о +28.8 +16.7 48 +32 +32 душно 1015.5 994.8
15 22.06 ЮЗ 2 н/о н/о +30.5 +14.0 37 +32 +32 жарко 1014.3 993.7
18 22.06 СЗ 1 н/о н/о +22.1 +17.2 74 +27 +27 душно 1015.1 994.0 +30.7
21 22.06 СЗ 1 н/о н/о +21.4 +17.5 78 +25 +25 комфорт 1016.3 995.1
00 23.06 СЗ 1 н/о н/о +19.3 +16.8 85 +22 +22 комфорт 1017.7 996.3
03 23.06 штиль 0 н/о н/о +19.0 +16.8 87 +20 +20 тепло 1018.8 997.4 +18.6
06 23.06 С 1 н/о н/о +22.1 +17.0 73 +27 +27 душно 1019.3 998.0 +18.6
09 23.06 штиль 0 н/о н/о +23.7 +16.5 64 +27 +27 жарко 1019.1 998.0
12 23.06 штиль 0 н/о н/о +24.5 +15.4 57 +27 +27 жарко 1019.2 998.1
15 23.06 СЗ 1 н/о н/о +25.2 +13.5 48 +27 +27 жарко 1018.2 997.2
18 23.06 штиль 0 н/о н/о +20.2 +13.2 64 +22 +22 комфорт 1019.2 997.8 +26.0
21 23.06 штиль 0 н/о н/о +14.1 +13.4 96 +14 +14 по сезону 1022.1 1000.2
00 24.06 штиль 0 н/о н/о +13.5 +13.0 97 +13 +13 по сезону 1021.4 999.4
03 24.06 штиль 0 н/о н/о +13.7 +13.2 97 +13 +13 по сезону 1021.9 1000.0 +13.3 14
06 24.06 С 1 н/о н/о +19.5 +12.7 65 +22 +22 комфорт 1022.3 1000.8 +13.3 14
09 24.06 С 1 н/о н/о +22.5 +9.2 43 +24 +24 комфорт 1021.8 1000.5
12 24.06 З 2 н/о н/о +23.8 +7.4 35 +24 +24 комфорт 1021.5 1000.3
15 24.06 СЗ 2 н/о н/о +24.4 +7.2 33 +25 +25 комфорт 1021.3 1000.1
18 24.06 СЗ 1 н/о н/о +17.4 +11.5 68 +18 +18 по сезону 1022.7 1001.0 +24.6
21 24.06 штиль 0 н/о н/о +11.9 +10.8 93 +11 +11 прохладно 1024.9 1002.7
03 25.06 штиль 0 н/о н/о +11.0 +10.5 97 +10 +10 холодно 1027.1 1004.8 +8.5

 

Местоположение метеостанции Мелихово (Московская область, Россия): широта 55.12 долгота 37.65 высота над уровнем моря 184 м.

В архиве по умолчанию представлена погода в Мелихово за последнюю неделю. Архивные данные за месяц целиком и за предыдущие месяцы, начиная с января 2011 года, Вы можете получить, выбрав интересующий диапазон дат из раскрывающегося списка и нажав кнопку "Ввод!".


*Определитесь, кто Вы:
робот инопланетянин человек

Внимание! Время в таблицах - всемирное. Для получения местного времени необходимо прибавить поправку, которая равна 3 ч.

Смотрите также архив погоды в соседних городах и на ближайших метеорологических станциях:

Погода в Михнево (Московская область, Россия) (20 км)
Погода в Серпухове (Московская область, Россия) (24 км)
Погода в Домодедово (Московская область, Россия) (35 км)
Погода в Михайловском (город Москва, Россия) (40 км)
Погода в Горках Ленинских (Московская область, Россия) (45 км)
Погода в Кашире (Московская область, Россия) (45 км)
Погода в Москве (Бутово) (город Москва, Россия) (50 км)
Погода в Внуково (Московская область, Россия) (58 км)
Погода в Толстопальцево (город Москва, Россия) (59 км)
Погода в Люберцах (Московская область, Россия) (66 км)

Пояснения к столбцам:

Ветер - указаны скорость ветра в м/с - средняя за 10 мин, порывы в срок и между сроками (в фигурных скобках) и направление, откуда дует ветер: С - северный, СВ - северо-восточный, В - восточный, ЮВ - юго-восточный, Ю - южный, ЮЗ - юго-западный, З - западный, СЗ - северо-западный.
Видимость - горизонтальная дальность видимости в метрах или километрах. При видимости от 1 до 10 км при отсутствии осадков обычно наблюдается дымка, при ухудшении видимости до 1 км и менее - туман. В сухую погоду видимость может ухудшаться дымом, пылью или мглою.
Явления - указаны атмосферные явления, наблюдавшиеся в срок или в последний час перед сроком; фигурными скобками обозначены явления, наблюдавшиеся между сроками (за 1-3 часа до срока); квадратными скобками обозначены град или гололедные отложения с указанием их диаметра в мм.
Облачность - указаны через наклонную черту общая и нижняя облачность в баллах и высота нижней границы облаков в метрах; квадратными скобками обозначены формы облаков: Ci - перистые, Cs - перисто-слоистые, Cc - перисто-кучевые, Ac - высококучевые, As - высокослоистые, Sc - слоисто-кучевые, Ns - слоисто-дождевые, Cu - кучевые, Cb - кучево-дождевые. Подробнее классификацию облаков см. в Атласе облаков (PDF).
T - Температура воздуха - температура, измеренная на высоте 2 м над землей.
Td - Температура точки росы - температура, при понижении до которой содержащийся в воздухе водяной пар достигнет насыщения.
f - Относительная влажность воздуха - влажноcть воздуха, измеренная на высоте 2 м над землей.
Te - Эффективная температура - температура, которую ощущает одетый по сезону человек в тени. Характеристика душности погоды. При расчете учитывается влияние влажности воздуха и скорости ветра на теплоощущения человека.
Tes - Эффективная температура на солнце - температура, которую ощущает человек, с поправкой на солнечный нагрев. Характеристика знойности погоды. Зависит от высоты солнца над горизонтом, облачности и скорости ветра. Ночью, в пасмурную погоду, а также при ветре 12 м/с и более поправка равна нулю.
P - Атмосферное давление - приведенное к уровню моря атмосферное давление.
Po - Атмосферное давление - измеренное на уровне метеостанции атмосферное давление.
Tmin - Минимальная температура - минимум температуры воздуха на высоте 2 м над землей.
Tmax - Максимальная температура - максимум температуры воздуха на высоте 2 м над землей.
R - Количество осадков - Количество выпавших осадков за период времени, мм. При наведении курсора мыши на число - период времени, за который выпало указанное количество осадков.
R24 - Количество осадков - Количество выпавших осадков за 24 часа, мм.
S - Снежный покров - Высота снежного покрова, см. При наведении курсора мыши на число - состояние снежного покрова и степень покрытия местности в баллах.